Weather History for KMPV - February, 2012

Change the Weather History Date:

Wednesday, February 22, 2012

  Actual Average Record
Temperature  
Mean Temperature 38 °F 22 °F  
Max Temperature 45 °F 32 °F 61 °F (1997)
Min Temperature 31 °F 11 °F -11 °F (1963)
Degree Days  
Heating Degree Days 27 43  
Month to date heating degree days 827 1007  
Since 1 July heating degree days 4768 5652  
Cooling Degree Days 0 0  
Month to date cooling degree days 0  
Year to date cooling degree days 0  
Moisture  
Dew Point 30 °F    
Average Humidity 70    
Maximum Humidity 96    
Minimum Humidity 43    
Precipitation  
Precipitation 0.11 in 0.07 in 1.79 in (1974)
Month to date precipitation 0.29 1.61  
Year to date precipitation 2.57 4.06  
Sea Level Pressure  
Sea Level Pressure 29.58 in    
Wind  
Wind Speed 9 mph (SSW)    
Max Wind Speed 21 mph    
Max Gust Speed 31 mph    
Visibility 8 miles    
Events Fog , Rain , Snow    
T = Trace of Precipitation, MM = Missing Value Source: NWS Daily Summary

Daily Weather History Graph

Daily Weather History Graph

Search for Another Location

Airport or City:

Trip Planner

Search our weather history database for the weather conditions in past years. The results will help you decide how hot, cold, wet, or windy it might be!

Date:

Astronomy

Feb. 22, 2012 Rise Set
Actual Time 6:39 AM EST 5:28 PM EST
Civil Twilight 6:10 AM EST 5:57 PM EST
Nautical Twilight 5:36 AM EST 6:31 PM EST
Astronomical Twilight 5:03 AM EST 7:05 PM EST
Moon 6:33 AM EST (2/22) 6:37 PM EST (2/22)
Length of Visible Light 11h 47m
Length of Day
10h 48m
New Moon, 1% of the Moon is Illuminated
Feb 22
New Moon
Feb 29
First Quarter
Mar 8
Full
Mar 14
Last Quarter
Mar 22
New

Hourly Weather History & Observations

Time (EST) Temp. Windchill Dew Point Humidity Pressure Visibility Wind Dir Wind Speed Gust Speed Precip Events Conditions
12:51 AM 30.9 °F 22.2 °F 28.0 °F 89% 29.79 in 10.0 mi SSE 10.4 mph - 0.00 in   Overcast
1:51 AM 30.9 °F 21.7 °F 28.9 °F 92% 29.76 in 10.0 mi South 11.5 mph - N/A   Overcast
2:51 AM 30.9 °F 24.3 °F 28.9 °F 92% 29.73 in 10.0 mi SSW 6.9 mph - N/A   Mostly Cloudy
3:51 AM 32.0 °F 24.8 °F 28.9 °F 88% 29.70 in 10.0 mi SSE 8.1 mph - N/A   Overcast
4:51 AM 32.0 °F 23.6 °F 30.0 °F 92% 29.69 in 6.0 mi SSE 10.4 mph - 0.00 in Snow Light Snow
5:13 AM 33.8 °F 27.0 °F 30.2 °F 87% 29.64 in 2.5 mi SSE 8.1 mph - 0.00 in Snow Light Snow
5:27 AM 32.0 °F 23.6 °F 30.2 °F 93% 29.64 in 4.0 mi SSE 10.4 mph - 0.01 in Snow Light Snow
5:37 AM 32.0 °F - 30.2 °F 93% 29.63 in 9.0 mi Calm Calm - 0.01 in   Overcast
5:51 AM 32.0 °F - 30.9 °F 96% 29.67 in 8.0 mi Calm Calm - 0.01 in   Overcast
6:18 AM 33.8 °F 27.7 °F 30.2 °F 87% 29.63 in 10.0 mi South 6.9 mph - N/A   Overcast
6:51 AM 34.0 °F 26.0 °F 32.0 °F 92% 29.66 in 9.0 mi South 10.4 mph - 0.00 in   Overcast
7:21 AM 33.8 °F 25.3 °F 32.0 °F 93% 29.62 in 10.0 mi South 11.5 mph - 0.00 in   Overcast
7:51 AM 35.1 °F 27.4 °F 32.0 °F 89% 29.66 in 10.0 mi South 10.4 mph - 0.00 in Rain Light Rain
8:51 AM 39.0 °F 31.4 °F 30.9 °F 73% 29.64 in 10.0 mi WSW 12.7 mph 18.4 mph 0.00 in   Mostly Cloudy
9:51 AM 41.0 °F 31.6 °F 30.0 °F 65% 29.63 in 10.0 mi West 20.7 mph 31.1 mph N/A   Scattered Clouds
10:51 AM 42.1 °F 34.9 °F 28.0 °F 58% 29.62 in 10.0 mi WSW 13.8 mph 26.5 mph N/A   Clear
11:51 AM 42.1 °F 35.2 °F 25.0 °F 51% 29.62 in 10.0 mi WSW 12.7 mph 26.5 mph N/A   Partly Cloudy
12:51 PM 43.0 °F 38.2 °F 24.1 °F 47% 29.59 in 10.0 mi WSW 8.1 mph - N/A   Mostly Cloudy
1:51 PM 43.0 °F 37.7 °F 23.0 °F 45% 29.57 in 10.0 mi SSW 9.2 mph 17.3 mph N/A   Mostly Cloudy
2:51 PM 43.0 °F 37.7 °F 21.9 °F 43% 29.57 in 10.0 mi SSW 9.2 mph - N/A   Mostly Cloudy
3:51 PM 43.0 °F 37.7 °F 21.0 °F 42% 29.55 in 10.0 mi SSW 9.2 mph - N/A   Overcast
4:51 PM 42.1 °F 38.4 °F 24.1 °F 49% 29.54 in 10.0 mi South 5.8 mph - N/A   Mostly Cloudy
5:51 PM 41.0 °F 33.5 °F 27.0 °F 57% 29.56 in 10.0 mi SW 13.8 mph 23.0 mph N/A   Overcast
6:47 PM 37.4 °F 32.8 °F 33.8 °F 87% 29.55 in 9.0 mi West 5.8 mph - 0.00 in Rain Light Rain
6:51 PM 37.0 °F 34.5 °F 33.1 °F 86% 29.59 in 10.0 mi WSW 3.5 mph - 0.00 in Rain Light Rain
7:00 PM 37.4 °F 33.8 °F 33.8 °F 87% 29.55 in 10.0 mi SW 4.6 mph - 0.00 in Rain Light Rain
7:25 PM 35.6 °F 31.7 °F 33.8 °F 93% 29.54 in 8.0 mi South 4.6 mph - 0.01 in Rain Light Rain
7:51 PM 35.1 °F 28.6 °F 33.1 °F 92% 29.57 in 10.0 mi South 8.1 mph - 0.02 in Rain Light Rain
8:01 PM 35.6 °F 28.6 °F 33.8 °F 93% 29.53 in 10.0 mi SSE 9.2 mph - 0.00 in Rain Light Rain
8:41 PM 35.6 °F 29.9 °F 33.8 °F 93% 29.52 in 10.0 mi South 6.9 mph - 0.01 in Rain Light Rain
8:49 PM 35.6 °F 28.6 °F 33.8 °F 93% 29.52 in 10.0 mi South 9.2 mph - 0.01 in Rain Light Rain
8:51 PM 35.1 °F 27.9 °F 33.1 °F 92% 29.55 in 10.0 mi South 9.2 mph - 0.01 in Rain Light Rain
9:17 PM 35.6 °F 30.7 °F 33.8 °F 93% 29.53 in 10.0 mi SSW 5.8 mph - 0.00 in Rain Light Rain
9:51 PM 35.1 °F 31.0 °F 34.0 °F 96% 29.55 in 10.0 mi SSW 4.6 mph - 0.02 in Rain Light Rain
10:49 PM 35.6 °F - 33.8 °F 93% 29.49 in 10.0 mi Calm Calm - 0.04 in Rain Light Rain
10:51 PM 35.1 °F - 34.0 °F 96% 29.52 in 10.0 mi Calm Calm - 0.05 in Rain Light Rain
11:32 PM 33.8 °F - 33.8 °F 100% 29.45 in 1.2 mi Calm Calm - 0.00 in   Mostly Cloudy
11:34 PM 33.8 °F - 33.8 °F 100% 29.45 in 0.8 mi Calm Calm - 0.00 in   Mostly Cloudy
11:46 PM 33.8 °F - 33.8 °F 100% 29.45 in 0.2 mi Calm Calm - 0.00 in Fog Fog
11:51 PM 32.0 °F - 32.0 °F 100% 29.48 in 0.5 mi Calm Calm - 0.00 in Fog Fog
11:55 PM 32.0 °F - 32.0 °F 100% 29.44 in 1.2 mi Calm Calm - N/A   Mostly Cloudy
11:57 PM 32.0 °F - 30.2 °F 93% 29.44 in 3.0 mi Calm Calm - N/A   Mostly Cloudy